owner,sensor,date,latitude,longitude,vertical_datum,wind_speed,wind_to_direction,wind_speed_of_gust,qcFlag 
WAVCIS,ioos:station:WAVCIS:CSI15:1,2010-07-01T00:00:00Z,28.8332,-90.8320,10.0,7.31,80.0,,'11111222,11111222,99999999' 
WAVCIS,ioos:station:WAVCIS:CSI15:1,2010-07-01T01:00:00Z,28.8332,-90.8320,10.0,8.82,66.0,,'11111222,11111222,99999999' 
WAVCIS,ioos:station:WAVCIS:CSI15:1,2010-07-01T02:00:00Z,28.8332,-90.8320,10.0,10.3,77.0,,'11111222,11111222,99999999' 
WAVCIS,ioos:station:WAVCIS:CSI15:1,2010-07-01T03:00:00Z,28.8332,-90.8320,10.0,9.19,80.0,,'11111222,11111222,99999999' 
WAVCIS,ioos:station:WAVCIS:CSI15:1,2010-07-01T04:00:00Z,28.8332,-90.8320,10.0,9.67,73.0,,'11111222,11111222,99999999' 
WAVCIS,ioos:station:WAVCIS:CSI15:1,2010-07-01T05:00:00Z,28.8332,-90.8320,10.0,9.12,89.0,,'11111222,11111222,99999999' 
WAVCIS,ioos:station:WAVCIS:CSI15:1,2010-07-01T06:00:00Z,28.8332,-90.8320,10.0,9.35,88.0,,'11111222,11111222,99999999' 
WAVCIS,ioos:station:WAVCIS:CSI15:1,2010-07-01T07:00:00Z,28.8332,-90.8320,10.0,10.29,88.0,,'11111222,11111222,99999999' 
WAVCIS,ioos:station:WAVCIS:CSI15:1,2010-07-01T08:00:00Z,28.8332,-90.8320,10.0,9.78,84.0,,'11111222,11111222,99999999' 
WAVCIS,ioos:station:WAVCIS:CSI15:1,2010-07-01T09:00:00Z,28.8332,-90.8320,10.0,9.65,86.0,,'11111222,11111222,99999999' 
WAVCIS,ioos:station:WAVCIS:CSI15:1,2010-07-01T10:00:00Z,28.8332,-90.8320,10.0,8.81,81.0,,'11111222,11111222,99999999' 
WAVCIS,ioos:station:WAVCIS:CSI15:1,2010-07-01T11:00:00Z,28.8332,-90.8320,10.0,9.63,67.0,,'11111222,11111222,99999999' 
WAVCIS,ioos:station:WAVCIS:CSI15:1,2010-07-01T12:00:00Z,28.8332,-90.8320,10.0,11.1,59.0,,'11111222,11111222,99999999' 
WAVCIS,ioos:station:WAVCIS:CSI15:1,2010-07-01T13:00:00Z,28.8332,-90.8320,10.0,11.69,76.0,,'11111222,11111222,99999999' 
WAVCIS,ioos:station:WAVCIS:CSI15:1,2010-07-01T14:00:00Z,28.8332,-90.8320,10.0,7.19,95.0,,'11111222,11111222,99999999' 
WAVCIS,ioos:station:WAVCIS:CSI15:1,2010-07-01T15:00:00Z,28.8332,-90.8320,10.0,2.471,170.0,,'11111222,11111222,99999999' 
WAVCIS,ioos:station:WAVCIS:CSI15:1,2010-07-01T16:00:00Z,28.8332,-90.8320,10.0,5.051,107.0,,'11111222,11111222,99999999' 
WAVCIS,ioos:station:WAVCIS:CSI15:1,2010-07-01T17:00:00Z,28.8332,-90.8320,10.0,7.13,102.0,,'11111222,11111222,99999999' 
WAVCIS,ioos:station:WAVCIS:CSI15:1,2010-07-01T18:00:00Z,28.8332,-90.8320,10.0,6.248,92.0,,'11111222,11111222,99999999' 
WAVCIS,ioos:station:WAVCIS:CSI15:1,2010-07-01T19:00:00Z,28.8332,-90.8320,10.0,4.543,107.0,,'11111222,11111222,99999999' 
WAVCIS,ioos:station:WAVCIS:CSI15:1,2010-07-01T20:00:00Z,28.8332,-90.8320,10.0,5.941,134.0,,'11111222,11111222,99999999' 
WAVCIS,ioos:station:WAVCIS:CSI15:1,2010-07-01T21:00:00Z,28.8332,-90.8320,10.0,6.982,74.0,,'11111222,11111222,99999999' 
WAVCIS,ioos:station:WAVCIS:CSI15:1,2010-07-01T22:00:00Z,28.8332,-90.8320,10.0,7.69,59.0,,'11111222,11111222,99999999' 
WAVCIS,ioos:station:WAVCIS:CSI15:1,2010-07-01T23:00:00Z,28.8332,-90.8320,10.0,8.1,75.0,,'11111222,11111222,99999999' 
WAVCIS,ioos:station:WAVCIS:CSI15:1,2010-07-02T00:00:00Z,28.8332,-90.8320,10.0,9.22,68.0,,'11111222,11111222,99999999' 
WAVCIS,ioos:station:WAVCIS:CSI15:1,2010-07-02T01:00:00Z,28.8332,-90.8320,10.0,10.05,68.0,,'11111222,11111222,99999999' 
WAVCIS,ioos:station:WAVCIS:CSI15:1,2010-07-02T02:00:00Z,28.8332,-90.8320,10.0,9.74,77.0,,'11111222,11111222,99999999' 
WAVCIS,ioos:station:WAVCIS:CSI15:1,2010-07-02T03:00:00Z,28.8332,-90.8320,10.0,9.5,79.0,,'11111222,11111222,99999999' 
WAVCIS,ioos:station:WAVCIS:CSI15:1,2010-07-02T04:00:00Z,28.8332,-90.8320,10.0,9.72,77.0,,'11111222,11111222,99999999' 
WAVCIS,ioos:station:WAVCIS:CSI15:1,2010-07-02T05:00:00Z,28.8332,-90.8320,10.0,9.82,78.0,,'11111222,11111222,99999999' 
WAVCIS,ioos:station:WAVCIS:CSI15:1,2010-07-02T06:00:00Z,28.8332,-90.8320,10.0,9.9,83.0,,'11111222,11111222,99999999' 
WAVCIS,ioos:station:WAVCIS:CSI15:1,2010-07-02T07:00:00Z,28.8332,-90.8320,10.0,8.64,95.0,,'11111222,11111222,99999999' 
WAVCIS,ioos:station:WAVCIS:CSI15:1,2010-07-02T08:00:00Z,28.8332,-90.8320,10.0,8.37,98.0,,'11111222,11111222,99999999' 
WAVCIS,ioos:station:WAVCIS:CSI15:1,2010-07-02T09:00:00Z,28.8332,-90.8320,10.0,6.751,97.0,,'11111222,11111222,99999999' 
WAVCIS,ioos:station:WAVCIS:CSI15:1,2010-07-02T10:00:00Z,28.8332,-90.8320,10.0,6.343,96.0,,'11111222,11111222,99999999' 
WAVCIS,ioos:station:WAVCIS:CSI15:1,2010-07-02T11:00:00Z,28.8332,-90.8320,10.0,6.794,101.0,,'11111222,11111222,99999999' 
WAVCIS,ioos:station:WAVCIS:CSI15:1,2010-07-02T12:00:00Z,28.8332,-90.8320,10.0,6.535,98.0,,'11111222,11111222,99999999' 
WAVCIS,ioos:station:WAVCIS:CSI15:1,2010-07-02T13:00:00Z,28.8332,-90.8320,10.0,5.003,106.0,,'11111222,11111222,99999999' 
WAVCIS,ioos:station:WAVCIS:CSI15:1,2010-07-02T14:00:00Z,28.8332,-90.8320,10.0,4.774,98.0,,'11111222,11111222,99999999' 
WAVCIS,ioos:station:WAVCIS:CSI15:1,2010-07-02T15:00:00Z,28.8332,-90.8320,10.0,4.474,84.0,,'11111222,11111222,99999999' 
WAVCIS,ioos:station:WAVCIS:CSI15:1,2010-07-02T16:00:00Z,28.8332,-90.8320,10.0,3.874,73.0,,'11111222,11111222,99999999' 
WAVCIS,ioos:station:WAVCIS:CSI15:1,2010-07-02T17:00:00Z,28.8332,-90.8320,10.0,5.025,63.0,,'11111222,11111222,99999999' 
WAVCIS,ioos:station:WAVCIS:CSI15:1,2010-07-02T18:00:00Z,28.8332,-90.8320,10.0,5.953,70.0,,'11111222,11111222,99999999' 
WAVCIS,ioos:station:WAVCIS:CSI15:1,2010-07-02T19:00:00Z,28.8332,-90.8320,10.0,9.18,51.0,,'11111222,11111222,99999999' 
WAVCIS,ioos:station:WAVCIS:CSI15:1,2010-07-02T20:00:00Z,28.8332,-90.8320,10.0,9.06,54.0,,'11111222,11111222,99999999' 
WAVCIS,ioos:station:WAVCIS:CSI15:1,2010-07-02T21:00:00Z,28.8332,-90.8320,10.0,6.274,75.0,,'11111222,11111222,99999999' 
WAVCIS,ioos:station:WAVCIS:CSI15:1,2010-07-02T22:00:00Z,28.8332,-90.8320,10.0,7.24,95.0,,'11111222,11111222,99999999' 
WAVCIS,ioos:station:WAVCIS:CSI15:1,2010-07-02T23:00:00Z,28.8332,-90.8320,10.0,6.945,103.0,,'11111222,11111222,99999999' 
WAVCIS,ioos:station:WAVCIS:CSI15:1,2010-07-03T00:00:00Z,28.8332,-90.8320,10.0,5.773,122.0,,'11111222,11111222,99999999' 
WAVCIS,ioos:station:WAVCIS:CSI15:1,2010-07-03T01:00:00Z,28.8332,-90.8320,10.0,4.244,120.0,,'11111222,11111222,99999999' 
WAVCIS,ioos:station:WAVCIS:CSI15:1,2010-07-03T02:00:00Z,28.8332,-90.8320,10.0,5.157,119.0,,'11111222,11111222,99999999' 
WAVCIS,ioos:station:WAVCIS:CSI15:1,2010-07-03T03:00:00Z,28.8332,-90.8320,10.0,4.807,93.0,,'11111222,11111222,99999999' 
WAVCIS,ioos:station:WAVCIS:CSI15:1,2010-07-03T04:00:00Z,28.8332,-90.8320,10.0,4.205,102.0,,'11111222,11111222,99999999' 
WAVCIS,ioos:station:WAVCIS:CSI15:1,2010-07-03T05:00:00Z,28.8332,-90.8320,10.0,4.747,68.0,,'11111222,11111222,99999999' 
WAVCIS,ioos:station:WAVCIS:CSI15:1,2010-07-03T06:00:00Z,28.8332,-90.8320,10.0,4.256,74.0,,'11111222,11111222,99999999' 
WAVCIS,ioos:station:WAVCIS:CSI15:1,2010-07-03T07:00:00Z,28.8332,-90.8320,10.0,3.061,51.0,,'11111222,11111222,99999999' 
WAVCIS,ioos:station:WAVCIS:CSI15:1,2010-07-03T08:00:00Z,28.8332,-90.8320,10.0,1.918,24.0,,'11111222,11111222,99999999' 
WAVCIS,ioos:station:WAVCIS:CSI15:1,2010-07-03T09:00:00Z,28.8332,-90.8320,10.0,2.366,48.0,,'11111222,11111222,99999999' 
WAVCIS,ioos:station:WAVCIS:CSI15:1,2010-07-03T10:00:00Z,28.8332,-90.8320,10.0,2.729,51.0,,'11111222,11111222,99999999' 
WAVCIS,ioos:station:WAVCIS:CSI15:1,2010-07-03T11:00:00Z,28.8332,-90.8320,10.0,2.527,36.0,,'11111222,11111222,99999999' 
WAVCIS,ioos:station:WAVCIS:CSI15:1,2010-07-03T12:00:00Z,28.8332,-90.8320,10.0,2.387,26.0,,'11111222,11111222,99999999' 
WAVCIS,ioos:station:WAVCIS:CSI15:1,2010-07-03T13:00:00Z,28.8332,-90.8320,10.0,3.14,16.0,,'11111222,11111222,99999999' 
WAVCIS,ioos:station:WAVCIS:CSI15:1,2010-07-03T14:00:00Z,28.8332,-90.8320,10.0,3.24,2.0,,'11111222,11111222,99999999' 
WAVCIS,ioos:station:WAVCIS:CSI15:1,2010-07-03T15:00:00Z,28.8332,-90.8320,10.0,4.306,358.0,,'11111222,11111222,99999999' 
WAVCIS,ioos:station:WAVCIS:CSI15:1,2010-07-03T16:00:00Z,28.8332,-90.8320,10.0,3.512,3.0,,'11111222,11111222,99999999' 
WAVCIS,ioos:station:WAVCIS:CSI15:1,2010-07-03T17:00:00Z,28.8332,-90.8320,10.0,3.298,5.0,,'11111222,11111222,99999999' 
WAVCIS,ioos:station:WAVCIS:CSI15:1,2010-07-03T18:00:00Z,28.8332,-90.8320,10.0,4.143,28.0,,'11111222,11111222,99999999' 
WAVCIS,ioos:station:WAVCIS:CSI15:1,2010-07-03T19:00:00Z,28.8332,-90.8320,10.0,4.664,53.0,,'11111222,11111222,99999999' 
WAVCIS,ioos:station:WAVCIS:CSI15:1,2010-07-03T20:00:00Z,28.8332,-90.8320,10.0,4.725,27.0,,'11111222,11111222,99999999' 
WAVCIS,ioos:station:WAVCIS:CSI15:1,2010-07-03T21:00:00Z,28.8332,-90.8320,10.0,6.785,28.0,,'11111222,11111222,99999999' 
WAVCIS,ioos:station:WAVCIS:CSI15:1,2010-07-03T22:00:00Z,28.8332,-90.8320,10.0,6.62,44.0,,'11111222,11111222,99999999' 
WAVCIS,ioos:station:WAVCIS:CSI15:1,2010-07-03T23:00:00Z,28.8332,-90.8320,10.0,7.05,36.0,,'11111222,11111222,99999999' 
WAVCIS,ioos:station:WAVCIS:CSI15:1,2010-07-04T00:00:00Z,28.8332,-90.8320,10.0,9.3,46.0,,'11111222,11111222,99999999' 
WAVCIS,ioos:station:WAVCIS:CSI15:1,2010-07-04T01:00:00Z,28.8332,-90.8320,10.0,10.19,50.0,,'11111222,11111222,99999999' 
WAVCIS,ioos:station:WAVCIS:CSI15:1,2010-07-04T02:00:00Z,28.8332,-90.8320,10.0,9.27,59.0,,'11111222,11111222,99999999' 
WAVCIS,ioos:station:WAVCIS:CSI15:1,2010-07-04T03:00:00Z,28.8332,-90.8320,10.0,10.31,59.0,,'11111222,11111222,99999999' 
WAVCIS,ioos:station:WAVCIS:CSI15:1,2010-07-04T04:00:00Z,28.8332,-90.8320,10.0,10.47,53.0,,'11111222,11111222,99999999' 
WAVCIS,ioos:station:WAVCIS:CSI15:1,2010-07-04T05:00:00Z,28.8332,-90.8320,10.0,10.63,67.0,,'11111222,11111222,99999999' 
WAVCIS,ioos:station:WAVCIS:CSI15:1,2010-07-04T06:00:00Z,28.8332,-90.8320,10.0,10.97,67.0,,'11111222,11111222,99999999' 
WAVCIS,ioos:station:WAVCIS:CSI15:1,2010-07-04T07:00:00Z,28.8332,-90.8320,10.0,11.16,70.0,,'11111222,11111222,99999999' 
WAVCIS,ioos:station:WAVCIS:CSI15:1,2010-07-04T08:00:00Z,28.8332,-90.8320,10.0,11.04,80.0,,'11111222,11111222,99999999' 
WAVCIS,ioos:station:WAVCIS:CSI15:1,2010-07-04T09:00:00Z,28.8332,-90.8320,10.0,9.99,80.0,,'11111222,11111222,99999999' 
WAVCIS,ioos:station:WAVCIS:CSI15:1,2010-07-04T10:00:00Z,28.8332,-90.8320,10.0,8.32,74.0,,'11111222,11111222,99999999' 
WAVCIS,ioos:station:WAVCIS:CSI15:1,2010-07-04T11:00:00Z,28.8332,-90.8320,10.0,7.91,80.0,,'11111222,11111222,99999999' 
WAVCIS,ioos:station:WAVCIS:CSI15:1,2010-07-04T12:00:00Z,28.8332,-90.8320,10.0,8.01,81.0,,'11111222,11111222,99999999' 
WAVCIS,ioos:station:WAVCIS:CSI15:1,2010-07-04T13:00:00Z,28.8332,-90.8320,10.0,8.02,81.0,,'11111222,11111222,99999999' 
WAVCIS,ioos:station:WAVCIS:CSI15:1,2010-07-04T14:00:00Z,28.8332,-90.8320,10.0,7.05,70.0,,'11111222,11111222,99999999' 
WAVCIS,ioos:station:WAVCIS:CSI15:1,2010-07-04T15:00:00Z,28.8332,-90.8320,10.0,5.609,78.0,,'11111222,11111222,99999999' 
WAVCIS,ioos:station:WAVCIS:CSI15:1,2010-07-04T16:00:00Z,28.8332,-90.8320,10.0,6.03,61.0,,'11111222,11111222,99999999' 
WAVCIS,ioos:station:WAVCIS:CSI15:1,2010-07-04T17:00:00Z,28.8332,-90.8320,10.0,7.29,56.0,,'11111222,11111222,99999999' 
WAVCIS,ioos:station:WAVCIS:CSI15:1,2010-07-04T18:00:00Z,28.8332,-90.8320,10.0,7.18,43.0,,'11111222,11111222,99999999' 
WAVCIS,ioos:station:WAVCIS:CSI15:1,2010-07-04T19:00:00Z,28.8332,-90.8320,10.0,7.14,47.0,,'11111222,11111222,99999999' 
WAVCIS,ioos:station:WAVCIS:CSI15:1,2010-07-04T20:00:00Z,28.8332,-90.8320,10.0,6.965,47.0,,'11111222,11111222,99999999' 
WAVCIS,ioos:station:WAVCIS:CSI15:1,2010-07-04T21:00:00Z,28.8332,-90.8320,10.0,7.8,49.0,,'11111222,11111222,99999999' 
WAVCIS,ioos:station:WAVCIS:CSI15:1,2010-07-04T22:00:00Z,28.8332,-90.8320,10.0,9.2,58.0,,'11111222,11111222,99999999' 
WAVCIS,ioos:station:WAVCIS:CSI15:1,2010-07-04T23:00:00Z,28.8332,-90.8320,10.0,8.4,64.0,,'11111222,11111222,99999999' 
WAVCIS,ioos:station:WAVCIS:CSI15:1,2010-07-05T00:00:00Z,28.8332,-90.8320,10.0,9.69,60.0,,'11111222,11111222,99999999' 
WAVCIS,ioos:station:WAVCIS:CSI15:1,2010-07-05T01:00:00Z,28.8332,-90.8320,10.0,9.94,60.0,,'11111222,11111222,99999999' 
WAVCIS,ioos:station:WAVCIS:CSI15:1,2010-07-05T02:00:00Z,28.8332,-90.8320,10.0,9.93,66.0,,'11111222,11111222,99999999' 
WAVCIS,ioos:station:WAVCIS:CSI15:1,2010-07-05T03:00:00Z,28.8332,-90.8320,10.0,9.43,70.0,,'11111222,11111222,99999999' 
WAVCIS,ioos:station:WAVCIS:CSI15:1,2010-07-05T04:00:00Z,28.8332,-90.8320,10.0,8.66,82.0,,'11111222,11111222,99999999' 
WAVCIS,ioos:station:WAVCIS:CSI15:1,2010-07-05T05:00:00Z,28.8332,-90.8320,10.0,7.64,81.0,,'11111222,11111222,99999999' 
WAVCIS,ioos:station:WAVCIS:CSI15:1,2010-07-05T06:00:00Z,28.8332,-90.8320,10.0,8.06,77.0,,'11111222,11111222,99999999' 
WAVCIS,ioos:station:WAVCIS:CSI15:1,2010-07-05T07:00:00Z,28.8332,-90.8320,10.0,8.15,84.0,,'11111222,11111222,99999999' 
WAVCIS,ioos:station:WAVCIS:CSI15:1,2010-07-05T08:00:00Z,28.8332,-90.8320,10.0,8.46,87.0,,'11111222,11111222,99999999' 
WAVCIS,ioos:station:WAVCIS:CSI15:1,2010-07-05T09:00:00Z,28.8332,-90.8320,10.0,10.37,93.0,,'11111222,11111222,99999999' 
WAVCIS,ioos:station:WAVCIS:CSI15:1,2010-07-05T10:00:00Z,28.8332,-90.8320,10.0,10.39,103.0,,'11111222,11111222,99999999' 
WAVCIS,ioos:station:WAVCIS:CSI15:1,2010-07-05T11:00:00Z,28.8332,-90.8320,10.0,11.96,126.0,,'11111222,11111222,99999999' 
WAVCIS,ioos:station:WAVCIS:CSI15:1,2010-07-05T12:00:00Z,28.8332,-90.8320,10.0,10.15,132.0,,'11111222,11111222,99999999' 
WAVCIS,ioos:station:WAVCIS:CSI15:1,2010-07-05T13:00:00Z,28.8332,-90.8320,10.0,9.88,127.0,,'11111222,11111222,99999999' 
WAVCIS,ioos:station:WAVCIS:CSI15:1,2010-07-05T14:00:00Z,28.8332,-90.8320,10.0,11.1,137.0,,'11111222,11111222,99999999' 
WAVCIS,ioos:station:WAVCIS:CSI15:1,2010-07-05T15:00:00Z,28.8332,-90.8320,10.0,11.24,134.0,,'11111222,11111222,99999999' 
WAVCIS,ioos:station:WAVCIS:CSI15:1,2010-07-05T16:00:00Z,28.8332,-90.8320,10.0,11.46,124.0,,'11111222,11111222,99999999' 
WAVCIS,ioos:station:WAVCIS:CSI15:1,2010-07-05T17:00:00Z,28.8332,-90.8320,10.0,11.74,112.0,,'11111222,11111222,99999999' 
WAVCIS,ioos:station:WAVCIS:CSI15:1,2010-07-05T18:00:00Z,28.8332,-90.8320,10.0,7.58,189.0,,'11111222,11111222,99999999' 
WAVCIS,ioos:station:WAVCIS:CSI15:1,2010-07-05T19:00:00Z,28.8332,-90.8320,10.0,3.945,199.0,,'11111222,11111222,99999999' 
WAVCIS,ioos:station:WAVCIS:CSI15:1,2010-07-05T20:00:00Z,28.8332,-90.8320,10.0,6.52,208.0,,'11111222,11111222,99999999' 
WAVCIS,ioos:station:WAVCIS:CSI15:1,2010-07-05T21:00:00Z,28.8332,-90.8320,10.0,5.154,200.0,,'11111222,11111222,99999999' 
WAVCIS,ioos:station:WAVCIS:CSI15:1,2010-07-05T22:00:00Z,28.8332,-90.8320,10.0,10.78,144.0,,'11111222,11111222,99999999' 
WAVCIS,ioos:station:WAVCIS:CSI15:1,2010-07-05T23:00:00Z,28.8332,-90.8320,10.0,6.887,159.0,,'11111222,11111222,99999999' 
WAVCIS,ioos:station:WAVCIS:CSI15:1,2010-07-06T00:00:00Z,28.8332,-90.8320,10.0,13.59,121.0,,'11111222,11111222,99999999' 
WAVCIS,ioos:station:WAVCIS:CSI15:1,2010-07-06T01:00:00Z,28.8332,-90.8320,10.0,12.64,115.0,,'11111222,11111222,99999999' 
WAVCIS,ioos:station:WAVCIS:CSI15:1,2010-07-06T02:00:00Z,28.8332,-90.8320,10.0,12.93,106.0,,'11111222,11111222,99999999' 
WAVCIS,ioos:station:WAVCIS:CSI15:1,2010-07-06T03:00:00Z,28.8332,-90.8320,10.0,11.68,112.0,,'11111222,11111222,99999999' 
WAVCIS,ioos:station:WAVCIS:CSI15:1,2010-07-06T04:00:00Z,28.8332,-90.8320,10.0,12.09,114.0,,'11111222,11111222,99999999' 
WAVCIS,ioos:station:WAVCIS:CSI15:1,2010-07-06T05:00:00Z,28.8332,-90.8320,10.0,10.88,115.0,,'11111222,11111222,99999999' 
WAVCIS,ioos:station:WAVCIS:CSI15:1,2010-07-06T06:00:00Z,28.8332,-90.8320,10.0,9.63,121.0,,'11111222,11111222,99999999' 
WAVCIS,ioos:station:WAVCIS:CSI15:1,2010-07-06T07:00:00Z,28.8332,-90.8320,10.0,8.62,120.0,,'11111222,11111222,99999999' 
WAVCIS,ioos:station:WAVCIS:CSI15:1,2010-07-06T08:00:00Z,28.8332,-90.8320,10.0,8.46,125.0,,'11111222,11111222,99999999' 
WAVCIS,ioos:station:WAVCIS:CSI15:1,2010-07-06T09:00:00Z,28.8332,-90.8320,10.0,7.37,114.0,,'11111222,11111222,99999999' 
WAVCIS,ioos:station:WAVCIS:CSI15:1,2010-07-06T10:00:00Z,28.8332,-90.8320,10.0,6.753,123.0,,'11111222,11111222,99999999' 
WAVCIS,ioos:station:WAVCIS:CSI15:1,2010-07-06T11:00:00Z,28.8332,-90.8320,10.0,7.45,121.0,,'11111222,11111222,99999999' 
WAVCIS,ioos:station:WAVCIS:CSI15:1,2010-07-06T12:00:00Z,28.8332,-90.8320,10.0,7.3,121.0,,'11111222,11111222,99999999' 
WAVCIS,ioos:station:WAVCIS:CSI15:1,2010-07-06T13:00:00Z,28.8332,-90.8320,10.0,6.289,108.0,,'11111222,11111222,99999999' 
WAVCIS,ioos:station:WAVCIS:CSI15:1,2010-07-06T14:00:00Z,28.8332,-90.8320,10.0,6.355,116.0,,'11111222,11111222,99999999' 
WAVCIS,ioos:station:WAVCIS:CSI15:1,2010-07-06T15:00:00Z,28.8332,-90.8320,10.0,6.358,96.0,,'11111222,11111222,99999999' 
WAVCIS,ioos:station:WAVCIS:CSI15:1,2010-07-06T16:00:00Z,28.8332,-90.8320,10.0,5.654,95.0,,'11111222,11111222,99999999' 
WAVCIS,ioos:station:WAVCIS:CSI15:1,2010-07-06T17:00:00Z,28.8332,-90.8320,10.0,7.26,88.0,,'11111222,11111222,99999999' 
WAVCIS,ioos:station:WAVCIS:CSI15:1,2010-07-06T18:00:00Z,28.8332,-90.8320,10.0,6.523,91.0,,'11111222,11111222,99999999' 
WAVCIS,ioos:station:WAVCIS:CSI15:1,2010-07-06T19:00:00Z,28.8332,-90.8320,10.0,6.848,103.0,,'11111222,11111222,99999999' 
WAVCIS,ioos:station:WAVCIS:CSI15:1,2010-07-06T20:00:00Z,28.8332,-90.8320,10.0,6.839,77.0,,'11111222,11111222,99999999' 
WAVCIS,ioos:station:WAVCIS:CSI15:1,2010-07-06T21:00:00Z,28.8332,-90.8320,10.0,12.29,96.0,,'11111222,11111222,99999999' 
WAVCIS,ioos:station:WAVCIS:CSI15:1,2010-07-06T22:00:00Z,28.8332,-90.8320,10.0,7.55,76.0,,'11111222,11111222,99999999' 
WAVCIS,ioos:station:WAVCIS:CSI15:1,2010-07-06T23:00:00Z,28.8332,-90.8320,10.0,12.69,99.0,,'11111222,11111222,99999999' 
WAVCIS,ioos:station:WAVCIS:CSI15:1,2010-07-07T00:00:00Z,28.8332,-90.8320,10.0,9.33,110.0,,'11111222,11111222,99999999' 
WAVCIS,ioos:station:WAVCIS:CSI15:1,2010-07-07T01:00:00Z,28.8332,-90.8320,10.0,11.55,105.0,,'11111222,11111222,99999999' 
WAVCIS,ioos:station:WAVCIS:CSI15:1,2010-07-07T02:00:00Z,28.8332,-90.8320,10.0,11.34,99.0,,'11111222,11111222,99999999' 
WAVCIS,ioos:station:WAVCIS:CSI15:1,2010-07-07T03:00:00Z,28.8332,-90.8320,10.0,11.08,106.0,,'11111222,11111222,99999999' 
WAVCIS,ioos:station:WAVCIS:CSI15:1,2010-07-07T04:00:00Z,28.8332,-90.8320,10.0,11.24,107.0,,'11111222,11111222,99999999' 
WAVCIS,ioos:station:WAVCIS:CSI15:1,2010-07-07T05:00:00Z,28.8332,-90.8320,10.0,12.01,106.0,,'11111222,11111222,99999999' 
WAVCIS,ioos:station:WAVCIS:CSI15:1,2010-07-07T06:00:00Z,28.8332,-90.8320,10.0,10.61,112.0,,'11111222,11111222,99999999' 
WAVCIS,ioos:station:WAVCIS:CSI15:1,2010-07-07T07:00:00Z,28.8332,-90.8320,10.0,9.46,101.0,,'11111222,11111222,99999999' 
WAVCIS,ioos:station:WAVCIS:CSI15:1,2010-07-07T08:00:00Z,28.8332,-90.8320,10.0,9.74,104.0,,'11111222,11111222,99999999' 
WAVCIS,ioos:station:WAVCIS:CSI15:1,2010-07-07T09:00:00Z,28.8332,-90.8320,10.0,9.25,103.0,,'11111222,11111222,99999999' 
WAVCIS,ioos:station:WAVCIS:CSI15:1,2010-07-07T10:00:00Z,28.8332,-90.8320,10.0,9.21,108.0,,'11111222,11111222,99999999' 
WAVCIS,ioos:station:WAVCIS:CSI15:1,2010-07-07T11:00:00Z,28.8332,-90.8320,10.0,9.57,92.0,,'11111222,11111222,99999999' 
WAVCIS,ioos:station:WAVCIS:CSI15:1,2010-07-07T12:00:00Z,28.8332,-90.8320,10.0,15.14,115.0,,'11111222,11111222,99999999' 
WAVCIS,ioos:station:WAVCIS:CSI15:1,2010-07-07T13:00:00Z,28.8332,-90.8320,10.0,13.23,121.0,,'11111222,11111222,99999999' 
WAVCIS,ioos:station:WAVCIS:CSI15:1,2010-07-07T14:00:00Z,28.8332,-90.8320,10.0,12.73,138.0,,'11111222,11111222,99999999' 
WAVCIS,ioos:station:WAVCIS:CSI15:1,2010-07-07T15:00:00Z,28.8332,-90.8320,10.0,9.11,118.0,,'11111222,11111222,99999999' 
WAVCIS,ioos:station:WAVCIS:CSI15:1,2010-07-07T16:00:00Z,28.8332,-90.8320,10.0,10.21,126.0,,'11111222,11111222,99999999' 
WAVCIS,ioos:station:WAVCIS:CSI15:1,2010-07-07T17:00:00Z,28.8332,-90.8320,10.0,8.46,118.0,,'11111222,11111222,99999999' 
WAVCIS,ioos:station:WAVCIS:CSI15:1,2010-07-07T18:00:00Z,28.8332,-90.8320,10.0,13.96,138.0,,'11111222,11111222,99999999' 
WAVCIS,ioos:station:WAVCIS:CSI15:1,2010-07-07T19:00:00Z,28.8332,-90.8320,10.0,9.98,118.0,,'11111222,11111222,99999999' 
WAVCIS,ioos:station:WAVCIS:CSI15:1,2010-07-07T20:00:00Z,28.8332,-90.8320,10.0,10.97,123.0,,'11111222,11111222,99999999' 
WAVCIS,ioos:station:WAVCIS:CSI15:1,2010-07-07T21:00:00Z,28.8332,-90.8320,10.0,8.93,119.0,,'11111222,11111222,99999999' 
WAVCIS,ioos:station:WAVCIS:CSI15:1,2010-07-07T22:00:00Z,28.8332,-90.8320,10.0,10.34,90.0,,'11111222,11111222,99999999' 
WAVCIS,ioos:station:WAVCIS:CSI15:1,2010-07-07T23:00:00Z,28.8332,-90.8320,10.0,9.67,95.0,,'11111222,11111222,99999999' 
WAVCIS,ioos:station:WAVCIS:CSI15:1,2010-07-08T00:00:00Z,28.8332,-90.8320,10.0,8.49,98.0,,'11111222,11111222,99999999' 
WAVCIS,ioos:station:WAVCIS:CSI15:1,2010-07-08T01:00:00Z,28.8332,-90.8320,10.0,7.59,89.0,,'11111222,11111222,99999999' 
WAVCIS,ioos:station:WAVCIS:CSI15:1,2010-07-08T02:00:00Z,28.8332,-90.8320,10.0,7.9,78.0,,'11111222,11111222,99999999' 
WAVCIS,ioos:station:WAVCIS:CSI15:1,2010-07-08T03:00:00Z,28.8332,-90.8320,10.0,8.72,76.0,,'11111222,11111222,99999999' 
WAVCIS,ioos:station:WAVCIS:CSI15:1,2010-07-08T04:00:00Z,28.8332,-90.8320,10.0,9.74,81.0,,'11111222,11111222,99999999' 
WAVCIS,ioos:station:WAVCIS:CSI15:1,2010-07-08T05:00:00Z,28.8332,-90.8320,10.0,10.11,87.0,,'11111222,11111222,99999999' 
WAVCIS,ioos:station:WAVCIS:CSI15:1,2010-07-08T06:00:00Z,28.8332,-90.8320,10.0,9.75,93.0,,'11111222,11111222,99999999' 
WAVCIS,ioos:station:WAVCIS:CSI15:1,2010-07-08T07:00:00Z,28.8332,-90.8320,10.0,9.74,95.0,,'11111222,11111222,99999999' 
WAVCIS,ioos:station:WAVCIS:CSI15:1,2010-07-08T08:00:00Z,28.8332,-90.8320,10.0,8.77,98.0,,'11111222,11111222,99999999' 
WAVCIS,ioos:station:WAVCIS:CSI15:1,2010-07-08T09:00:00Z,28.8332,-90.8320,10.0,7.02,100.0,,'11111222,11111222,99999999' 
WAVCIS,ioos:station:WAVCIS:CSI15:1,2010-07-08T10:00:00Z,28.8332,-90.8320,10.0,7.59,97.0,,'11111222,11111222,99999999' 
WAVCIS,ioos:station:WAVCIS:CSI15:1,2010-07-08T11:00:00Z,28.8332,-90.8320,10.0,7.32,89.0,,'11111222,11111222,99999999' 
WAVCIS,ioos:station:WAVCIS:CSI15:1,2010-07-08T12:00:00Z,28.8332,-90.8320,10.0,7.58,84.0,,'11111222,11111222,99999999' 
WAVCIS,ioos:station:WAVCIS:CSI15:1,2010-07-08T13:00:00Z,28.8332,-90.8320,10.0,7.33,80.0,,'11111222,11111222,99999999' 
WAVCIS,ioos:station:WAVCIS:CSI15:1,2010-07-08T14:00:00Z,28.8332,-90.8320,10.0,7.52,77.0,,'11111222,11111222,99999999' 
WAVCIS,ioos:station:WAVCIS:CSI15:1,2010-07-08T15:00:00Z,28.8332,-90.8320,10.0,8.51,74.0,,'11111222,11111222,99999999' 
WAVCIS,ioos:station:WAVCIS:CSI15:1,2010-07-08T16:00:00Z,28.8332,-90.8320,10.0,8.44,79.0,,'11111222,11111222,99999999' 
WAVCIS,ioos:station:WAVCIS:CSI15:1,2010-07-08T17:00:00Z,28.8332,-90.8320,10.0,7.49,85.0,,'11111222,11111222,99999999' 
WAVCIS,ioos:station:WAVCIS:CSI15:1,2010-07-08T18:00:00Z,28.8332,-90.8320,10.0,6.875,83.0,,'11111222,11111222,99999999' 
WAVCIS,ioos:station:WAVCIS:CSI15:1,2010-07-08T19:00:00Z,28.8332,-90.8320,10.0,6.577,82.0,,'11111222,11111222,99999999' 
WAVCIS,ioos:station:WAVCIS:CSI15:1,2010-07-08T20:00:00Z,28.8332,-90.8320,10.0,5.709,88.0,,'11111222,11111222,99999999' 
WAVCIS,ioos:station:WAVCIS:CSI15:1,2010-07-08T21:00:00Z,28.8332,-90.8320,10.0,4.816,88.0,,'11111222,11111222,99999999' 
WAVCIS,ioos:station:WAVCIS:CSI15:1,2010-07-08T22:00:00Z,28.8332,-90.8320,10.0,4.252,79.0,,'11111222,11111222,99999999' 
WAVCIS,ioos:station:WAVCIS:CSI15:1,2010-07-08T23:00:00Z,28.8332,-90.8320,10.0,3.805,88.0,,'11111222,11111222,99999999' 
WAVCIS,ioos:station:WAVCIS:CSI15:1,2010-07-09T00:00:00Z,28.8332,-90.8320,10.0,3.881,96.0,,'11111222,11111222,99999999' 
WAVCIS,ioos:station:WAVCIS:CSI15:1,2010-07-09T01:00:00Z,28.8332,-90.8320,10.0,3.333,98.0,,'11111222,11111222,99999999' 
WAVCIS,ioos:station:WAVCIS:CSI15:1,2010-07-09T02:00:00Z,28.8332,-90.8320,10.0,2.648,111.0,,'11111222,11111222,99999999' 
WAVCIS,ioos:station:WAVCIS:CSI15:1,2010-07-09T03:00:00Z,28.8332,-90.8320,10.0,2.432,103.0,,'11111222,11111222,99999999' 
WAVCIS,ioos:station:WAVCIS:CSI15:1,2010-07-09T04:00:00Z,28.8332,-90.8320,10.0,1.016,98.0,,'11111222,11111222,99999999' 
WAVCIS,ioos:station:WAVCIS:CSI15:1,2010-07-09T05:00:00Z,28.8332,-90.8320,10.0,0.979,64.0,,'11111222,11111222,99999999' 
WAVCIS,ioos:station:WAVCIS:CSI15:1,2010-07-09T06:00:00Z,28.8332,-90.8320,10.0,2.048,50.0,,'11111222,11111222,99999999' 